Wind_Speed
96 91 87 88 90 93 91 87 85 89 91 83 84 80 78 78 80 73 73 73 69 68 67 61 54 52 57 49 48 46 43 45 40 35 36 35 37 35 30 31 30 33 34 38 34 32 30 24 24
96 98 97 94 93 94 96 94 101 90 95 94 87 87 87 83 87 83 75 76 72 72 69 68 63 58 57 60 48 45 43 47 39 40 34 36 38 33 34 31 32 34 37 35 32 30 29 22 22
101 101 99 96 100 96 97 98 100 93 96 95 96 91 93 95 89 91 79 79 78 79 78 77 69 63 64 59 60 51 48 47 44 41 41 40 40 43 39 36 35 38 41 35 32 27 25 24 20
98 103 101 101 100 102 101 104 106 108 107 103 100 106 107 96 103 94 90 86 85 79 79 78 72 67 67 65 59 58 59 51 53 46 45 38 35 38 40 42 41 38 39 35 28 26 24 26 19
76 83 96 101 107 104 105 104 105 112 113 111 109 109 114 106 104 100 99 93 94 87 84 85 73 66 69 70 67 68 62 55 47 51 47 40 36 38 42 42 41 39 39 30 29 25 23 25 18
60 64 70 76 84 96 101 105 108 109 114 117 114 112 116 120 114 111 106 104 101 96 95 92 92 80 78 76 68 67 63 62 58 54 52 41 39 36 37 36 38 34 37 33 31 22 22 22 17
58 60 61 64 67 72 80 88 101 109 112 116 116 117 117 120 119 119 119 113 108 107 104 97 96 86 90 74 76 72 73 63 58 64 56 49 34 35 36 30 30 26 30 30 29 17 21 20 20
63 62 65 65 67 70 70 70 73 82 91 99 111 119 120 120 121 122 120 121 115 115 110 105 103 101 92 82 86 77 76 66 66 68 60 59 46 48 33 27 23 22 25 25 25 20 16 17 19
68 67 69 68 70 71 70 72 74 77 79 82 88 94 105 117 121 123 127 125 123 122 119 116 111 107 104 99 93 86 84 71 71 72 69 68 66 52 46 37 32 40 31 28 28 26 23 21 21
66 66 71 71 73 74 79 78 80 81 84 86 86 87 92 97 106 112 118 126 129 129 127 121 118 115 118 109 104 101 103 96 82 66 85 81 67 69 60 55 52 48 46 43 31 29 25 27 21
70 70 71 72 71 75 77 79 81 83 83 86 89 91 92 93 97 102 107 112 120 125 131 131 130 126 121 120 114 109 107 105 98 92 91 85 68 66 69 57 54 47 46 35 33 34 37 29 27
73 74 75 75 76 78 77 80 81 80 82 86 87 93 96 98 99 99 101 104 108 114 119 122 124 127 129 126 124 116 111 108 107 99 93 88 80 69 62 55 51 46 48 42 37 35 39 34 32
77 79 77 76 78 78 79 81 80 78 79 82 86 90 93 97 98 101 102 103 105 108 110 116 119 121 125 126 124 123 115 111 108 104 92 91 86 70 61 63 52 44 46 45 43 40 37 33 30
80 80 78 75 76 79 82 83 74 73 71 71 74 79 80 84 89 93 98 102 106 107 108 110 114 117 120 121 125 122 119 117 115 113 102 95 82 73 67 61 55 52 52 53 47 45 39 37 33
75 75 75 74 74 76 77 72 67 63 62 62 63 66 69 75 82 87 92 99 106 111 113 114 114 115 117 120 119 123 124 118 120 114 107 102 89 93 78 77 67 58 61 57 50 45 44 39 34
73 75 71 64 68 71 68 66 62 57 56 57 58 62 67 73 78 83 89 96 106 112 115 118 118 118 117 116 119 117 119 120 121 118 113 107 94 96 93 84 83 75 63 67 60 51 48 43 34
70 62 57 62 66 68 65 62 53 53 53 56 59 62 67 73 80 87 96 105 107 108 108 107 107 113 117 117 114 117 115 118 117 117 115 110 103 89 85 87 81 76 72 66 66 54 49 45 43
61 62 58 59 65 59 52 51 47 49 52 53 56 61 67 75 85 95 99 91 90 93 96 98 99 98 103 110 111 113 113 113 115 116 116 112 101 89 91 90 86 78 77 69 69 58 55 50 46
61 57 59 58 54 46 47 47 45 48 48 51 53 61 67 75 86 99 93 85 88 92 92 95 92 94 92 97 105 107 112 111 111 113 115 112 103 101 93 98 90 78 74 75 73 62 58 56 48
47 56 61 60 45 44 44 44 44 45 46 49 54 57 63 70 84 97 89 80 77 83 86 93 92 90 91 91 92 101 105 109 111 112 116 115 110 103 104 96 93 97 92 87 77 66 57 57 52
49 51 47 43 44 43 41 40 43 45 47 51 56 59 64 71 81 91 86 75 71 73 79 86 88 86 86 90 88 92 99 104 109 110 113 115 107 107 101 100 97 98 97 89 82 70 61 63 57
43 38 37 40 41 41 39 35 41 45 48 51 59 63 65 69 79 81 74 67 62 66 71 76 81 81 82 85 87 89 93 98 105 107 113 111 112 111 109 103 98 100 94 88 83 75 64 67 63
35 35 38 37 40 41 38 37 40 45 49 53 60 64 66 67 74 71 65 58 54 56 62 65 72 76 78 81 85 85 92 95 102 108 111 111 112 112 103 108 100 101 93 90 83 75 66 71 63
33 36 39 38 40 40 39 38 40 47 51 55 61 65 68 67 69 65 55 50 48 48 54 59 64 70 73 77 81 85 92 94 103 107 110 111 114 127 120 113 91 93 95 87 85 76 71 71 70
35 38 37 37 40 39 40 40 42 49 52 56 61 67 69 68 66 62 52 46 43 43 48 53 55 64 69 73 79 86 92 95 102 108 111 112 125 130 120 114 94 96 90 89 85 78 73 70 70
37 38 38 36 39 39 41 42 42 50 54 57 61 67 69 70 64 59 51 44 40 38 41 44 49 59 64 70 80 88 94 96 102 109 110 114 128 131 120 105 98 97 94 96 84 76 74 69 73
39 36 37 38 38 38 40 43 43 49 55 56 60 64 67 69 62 60 50 43 37 32 32 36 42 52 59 69 81 90 95 98 104 109 110 117 130 133 108 113 95 95 95 93 90 82 79 73 72
38 35 36 39 37 37 39 45 42 47 52 55 59 61 64 67 63 59 49 41 33 28 26 32 38 48 55 67 81 91 96 100 104 111 111 122 129 133 119 108 97 95 96 91 89 85 82 75 75
37 34 35 38 40 37 35 43 43 46 48 52 54 56 58 64 65 58 47 40 31 23 21 25 34 44 54 66 82 93 99 100 107 113 115 125 130 132 120 109 104 96 99 97 90 87 83 77 72
38 35 33 37 39 41 36 36 40 44 43 47 49 49 54 61 67 58 46 38 30 21 16 20 29 41 53 65 82 95 102 100 109 114 118 125 129 126 134 120 108 114 98 96 95 89 86 75 71
Wind_Direction
248 248 248 248 245 245 243 247 249 254 251 254 258 257 256 259 264 264 261 266 261 260 264 265 265 269 272 270 276 273 274 278 268 277 276 276 287 294 304 308 312 318 324 326 336 338 338 335 329
253 251 251 251 248 247 249 247 244 248 251 254 252 251 254 260 261 259 258 263 260 262 262 264 265 266 271 265 270 273 269 273 271 280 270 277 288 294 296 299 304 309 309 318 329 334 330 333 323
252 252 252 253 253 251 247 248 246 246 248 249 250 251 254 255 254 256 258 256 258 261 263 263 265 266 267 266 265 268 271 265 270 276 280 284 284 289 293 296 301 304 305 312 320 328 325 327 311
257 256 256 256 255 253 253 250 249 250 249 253 249 248 253 251 248 249 253 254 254 256 258 261 259 263 263 261 260 262 269 265 264 272 281 279 290 291 285 288 293 299 299 305 313 323 319 320 307
255 258 257 259 255 257 257 255 256 250 250 254 252 252 254 256 253 252 252 251 253 254 255 255 257 254 258 260 261 262 265 261 257 263 270 272 281 290 289 287 287 289 295 304 309 314 315 310 304
263 262 262 260 258 258 256 256 258 258 254 256 255 253 254 255 254 255 254 253 250 249 249 251 253 254 255 253 254 260 256 257 259 261 267 267 271 277 282 288 291 292 291 294 298 310 310 309 301
266 264 263 258 258 260 261 260 258 258 256 255 257 256 254 255 257 256 256 253 249 247 250 248 248 249 249 249 250 257 253 254 258 261 260 265 262 272 273 276 284 276 283 287 289 297 304 298 296
264 265 264 264 262 262 261 263 263 261 259 259 261 257 255 256 255 255 257 255 252 250 248 243 246 247 249 242 249 250 251 250 257 253 254 261 252 262 273 265 265 257 268 271 274 280 286 287 295
263 266 266 266 265 266 266 265 266 264 262 261 260 258 257 257 257 257 258 256 254 253 250 247 246 243 247 251 248 246 248 246 247 248 251 254 260 260 254 257 264 270 265 275 274 275 277 263 279
268 270 267 269 269 268 265 265 267 265 264 263 261 259 256 254 254 254 255 255 254 254 251 249 247 247 249 247 244 247 247 249 249 235 249 258 254 258 259 259 262 260 263 269 263 265 265 267 263
272 273 274 273 270 269 266 265 265 264 263 265 263 262 260 256 254 252 251 252 253 252 251 251 251 248 246 245 244 244 246 247 244 246 250 254 246 260 261 259 260 255 262 251 253 253 272 264 268
272 273 274 275 275 274 273 271 270 269 268 265 262 262 260 258 257 257 255 253 251 251 251 251 249 247 244 243 243 244 243 246 244 249 249 249 247 239 255 255 258 252 250 249 251 255 265 261 259
271 270 271 272 272 274 275 276 277 272 269 266 265 262 262 262 261 258 258 257 253 251 250 249 248 247 245 243 241 241 240 241 242 244 244 246 245 243 244 247 252 245 252 241 247 252 252 254 258
269 269 269 271 272 273 273 276 279 276 273 269 268 265 263 262 261 260 258 257 256 253 251 249 247 245 244 243 240 239 239 238 239 242 242 243 241 236 229 234 244 244 252 245 242 249 253 254 255
271 270 271 273 273 273 275 277 278 274 273 272 269 266 265 263 260 259 259 258 255 254 251 247 245 244 242 241 239 237 237 234 237 239 238 240 237 241 227 235 238 240 250 244 244 238 250 249 255
271 273 275 271 271 274 276 278 277 276 275 274 272 269 267 266 263 261 258 257 255 252 250 249 246 245 242 238 239 235 234 231 232 234 235 238 234 239 244 239 240 240 239 248 248 247 241 244 250
265 270 269 266 273 274 276 276 276 277 277 276 275 275 273 273 271 265 260 255 256 257 258 256 252 248 247 243 237 236 232 229 227 231 233 234 234 231 230 238 229 236 238 239 239 244 238 241 244
261 268 265 270 272 273 273 274 274 277 277 278 281 280 279 275 272 270 268 269 267 264 261 257 255 249 245 244 240 235 232 228 226 227 229 227 227 218 221 223 231 236 231 234 238 236 239 235 236
265 263 266 272 274 271 272 275 277 276 279 283 287 284 281 279 278 277 278 278 272 266 261 257 251 248 243 239 237 234 232 227 223 220 223 223 216 217 218 224 229 215 220 232 236 234 231 239 235
265 264 265 272 270 270 273 279 279 282 287 291 294 293 295 292 286 285 286 284 274 266 258 254 250 245 241 237 232 230 228 226 220 218 218 217 214 215 214 220 220 213 223 232 228 229 233 232 232
271 270 264 263 267 269 273 278 281 286 294 299 306 305 301 297 292 292 293 287 276 264 258 253 250 245 238 235 229 225 224 222 219 214 215 214 213 209 212 219 217 220 224 229 225 224 228 228 226
266 260 261 264 268 272 274 274 281 295 299 304 312 309 306 303 297 297 294 286 274 262 255 251 248 242 236 230 227 221 219 217 215 211 209 209 207 205 211 217 219 222 225 218 220 221 223 227 224
257 259 260 263 268 272 273 279 285 295 303 308 311 312 311 309 302 301 299 289 277 261 254 248 243 240 234 226 222 215 214 212 209 207 207 204 203 204 210 218 222 220 220 218 218 217 222 226 223
257 261 259 264 270 273 276 284 287 297 304 309 314 317 318 319 312 310 303 292 279 266 255 247 239 236 230 223 217 210 209 207 204 202 204 200 201 206 210 214 216 218 217 216 218 218 221 225 222
260 259 262 266 272 274 275 284 291 296 303 312 316 319 321 325 323 318 308 298 285 270 258 248 238 230 227 218 211 205 206 203 200 198 200 196 199 201 207 211 210 216 212 213 213 214 216 223 219
262 263 264 266 272 273 277 283 291 295 304 312 317 321 323 330 329 323 314 306 292 277 261 247 237 227 222 213 206 201 202 199 196 195 196 193 197 198 205 206 210 211 214 216 213 211 215 221 221
262 261 267 270 272 271 277 283 293 299 302 310 316 322 325 332 334 329 321 314 304 282 259 243 232 223 217 208 202 197 198 196 193 193 193 191 198 197 198 210 205 205 209 215 212 213 215 220 222
259 264 268 274 276 278 283 287 292 295 301 309 316 321 327 336 340 335 329 322 313 288 263 242 226 218 211 203 198 194 195 194 190 192 190 190 196 197 201 202 204 206 211 211 210 212 214 218 220
262 264 268 274 279 280 284 287 292 296 304 310 316 321 329 340 342 342 336 329 321 298 270 243 222 213 205 200 195 191 193 193 189 190 189 191 194 198 197 201 205 205 211 212 211 213 215 218 218
267 264 271 274 281 283 288 292 296 300 306 310 317 323 335 342 342 347 343 334 326 314 279 242 217 208 200 198 193 190 191 191 188 189 188 191 194 196 203 201 205 210 208 209 212 211 215 215 217
Height
10752 10753 10756 10759 10763 10763 10766 10771 10771 10772 10771 10776 10785 10791 10793 10795 10801 10809 10810 10813 10815 10818 10821 10828 10836 10841 10846 10847 10850 10851 10852 10854 10857 10861 10865 10866 10867 10867 10868 10867 10868 10867 10868 10867 10867 10866 10865 10864 10862
10737 10738 10740 10744 10747 10749 10753 10754 10754 10755 10756 10763 10772 10776 10781 10785 10787 10793 10800 10802 10804 10806 10809 10815 10823 10831 10837 10839 10842 10844 10846 10848 10849 10853 10857 10859 10861 10862 10863 10864 10865 10864 10864 10865 10864 10864 10863 10861 10860
10720 10722 10725 10726 10732 10733 10736 10738 10739 10740 10742 10748 10754 10759 10767 10770 10773 10775 10784 10789 10793 10795 10797 10802 10811 10819 10825 10831 10835 10838 10840 10841 10844 10847 10850 10853 10855 10857 10858 10859 10860 10859 10859 10861 10861 10861 10860 10859 10858
10705 10705 10707 10710 10713 10715 10717 10720 10724 10726 10726 10732 10734 10742 10745 10749 10755 10757 10766 10771 10779 10784 10787 10792 10799 10805 10811 10820 10823 10827 10831 10835 10837 10840 10844 10847 10848 10849 10852 10853 10855 10855 10853 10856 10857 10858 10857 10856 10856
10681 10684 10687 10690 10694 10694 10697 10700 10704 10709 10709 10712 10716 10722 10728 10730 10733 10738 10747 10756 10760 10767 10775 10779 10784 10791 10798 10803 10813 10817 10820 10826 10828 10831 10836 10840 10843 10845 10846 10847 10849 10850 10850 10852 10852 10853 10854 10853 10853
10667 10667 10668 10671 10673 10674 10676 10679 10682 10684 10690 10691 10697 10701 10708 10707 10713 10719 10727 10736 10745 10749 10757 10763 10771 10778 10786 10792 10799 10805 10808 10813 10818 10823 10827 10832 10836 10838 10841 10842 10844 10845 10845 10846 10848 10849 10850 10850 10850
10653 10654 10654 10655 10655 10656 10657 10659 10660 10660 10664 10668 10673 10680 10688 10688 10689 10696 10704 10713 10722 10730 10738 10744 10752 10763 10771 10776 10782 10790 10797 10804 10807 10814 10819 10824 10828 10831 10833 10837 10838 10839 10840 10842 10843 10843 10846 10847 10847
10641 10642 10640 10642 10642 10641 10641 10641 10639 10638 10640 10642 10643 10656 10662 10664 10667 10670 10675 10685 10695 10704 10714 10721 10733 10742 10753 10758 10766 10774 10783 10790 10800 10802 10807 10814 10819 10824 10828 10828 10832 10833 10834 10835 10837 10839 10841 10843 10844
10626 10627 10627 10626 10626 10626 10625 10624 10623 10623 10623 10624 10624 10629 10631 10638 10642 10643 10647 10655 10664 10675 10685 10696 10708 10721 10729 10738 10748 10757 10767 10777 10786 10791 10795 10801 10807 10811 10818 10819 10825 10829 10829 10830 10831 10833 10834 10837 10840
10612 10612 10611 10607 10608 10609 10608 10607 10607 10605 10602 10602 10603 10605 10608 10609 10615 10621 10622 10625 10634 10643 10654 10664 10678 10695 10706 10717 10728 10738 10749 10762 10772 10783 10778 10789 10794 10800 10805 10811 10816 10820 10820 10823 10826 10827 10829 10833 10834
10594 10595 10592 10592 10591 10588 10587 10589 10588 10584 10583 10582 10582 10582 10584 10587 10589 10593 10599 10599 10602 10610 10621 10633 10642 10662 10678 10692 10705 10717 10727 10742 10756 10762 10767 10776 10783 10785 10792 10799 10805 10811 10811 10813 10818 10817 10821 10826 10829
10579 10578 10576 10575 10573 10570 10568 10567 10566 10563 10563 10560 10560 10560 10560 10562 10566 10567 10571 10575 10580 10583 10589 10598 10611 10623 10645 10664 10679 10692 10708 10718 10733 10744 10754 10762 10770 10775 10780 10787 10793 10799 10804 10806 10809 10811 10816 10820 10823
10561 10560 10559 10558 10557 10553 10549 10549 10544 10543 10542 10540 10539 10539 10538 10538 10540 10543 10545 10547 10552 10556 10561 10568 10578 10590 10605 10628 10648 10667 10684 10695 10710 10725 10736 10745 10756 10759 10767 10775 10780 10786 10792 10799 10801 10804 10808 10812 10816
10542 10542 10542 10542 10540 10535 10532 10530 10526 10523 10521 10520 10520 10520 10518 10517 10515 10515 10516 10517 10518 10524 10530 10537 10545 10558 10571 10590 10612 10636 10656 10674 10685 10703 10716 10729 10733 10742 10750 10759 10767 10773 10780 10787 10793 10797 10801 10804 10809
10524 10522 10522 10524 10522 10517 10514 10511 10510 10507 10505 10503 10501 10500 10499 10494 10491 10489 10488 10488 10488 10489 10494 10501 10509 10522 10539 10554 10577 10599 10623 10647 10660 10677 10694 10707 10716 10725 10730 10742 10753 10761 10768 10775 10784 10789 10792 10796 10801
10504 10504 10505 10504 10503 10499 10494 10493 10493 10490 10489 10487 10486 10482 10477 10471 10470 10466 10461 10457 10451 10450 10454 10463 10476 10487 10503 10523 10539 10565 10588 10615 10632 10651 10669 10684 10697 10706 10715 10725 10738 10748 10757 10763 10775 10781 10783 10787 10793
10488 10489 10488 10488 10484 10482 10479 10476 10477 10474 10474 10470 10466 10462 10456 10452 10443 10437 10428 10420 10419 10423 10429 10436 10447 10460 10470 10489 10511 10530 10556 10582 10605 10622 10644 10662 10679 10689 10697 10708 10720 10735 10742 10750 10762 10769 10773 10777 10784
10473 10473 10473 10474 10470 10467 10465 10462 10465 10463 10458 10454 10449 10442 10437 10427 10416 10403 10394 10400 10401 10398 10398 10402 10406 10420 10437 10451 10475 10497 10523 10550 10577 10596 10616 10638 10658 10671 10678 10691 10705 10716 10727 10735 10750 10756 10762 10766 10773
10459 10459 10459 10459 10456 10454 10452 10450 10450 10447 10443 10438 10432 10424 10414 10403 10387 10371 10368 10371 10366 10360 10362 10363 10372 10383 10401 10417 10436 10464 10487 10516 10544 10569 10591 10614 10635 10646 10661 10673 10688 10702 10701 10720 10734 10739 10750 10757 10765
10445 10445 10444 10445 10443 10441 10439 10436 10433 10430 10427 10420 10412 10403 10391 10379 10362 10344 10337 10336 10330 10322 10326 10326 10337 10350 10369 10385 10406 10429 10455 10483 10513 10542 10565 10589 10610 10625 10640 10652 10668 10680 10691 10708 10722 10731 10740 10748 10753
10431 10430 10430 10431 10430 10430 10429 10425 10419 10415 10410 10402 10393 10383 10372 10357 10340 10323 10308 10301 10294 10290 10290 10293 10305 10320 10338 10355 10377 10400 10424 10452 10483 10512 10541 10566 10590 10609 10624 10634 10648 10663 10679 10696 10708 10717 10729 10735 10740
10419 10419 10419 10419 10417 10417 10415 10418 10407 10401 10395 10386 10375 10365 10352 10334 10316 10299 10285 10273 10265 10261 10261 10265 10275 10290 10308 10327 10349 10374 10397 10423 10454 10487 10512 10544 10570 10592 10606 10618 10633 10650 10667 10678 10692 10702 10715 10722 10733
10408 10409 10410 10409 10408 10405 10403 10403 10396 10388 10380 10370 10361 10347 10332 10314 10295 10279 10261 10250 10242 10237 10236 10241 10249 10261 10279 10300 10322 10349 10372 10397 10427 10459 10488 10522 10549 10575 10590 10601 10617 10636 10652 10661 10676 10689 10703 10711 10720
10399 10400 10400 10399 10397 10395 10391 10388 10386 10375 10367 10358 10345 10332 10316 10297 10274 10256 10244 10231 10223 10218 10215 10218 10227 10238 10254 10275 10299 10325 10347 10373 10401 10436 10466 10499 10526 10549 10569 10584 10603 10621 10636 10648 10665 10675 10689 10696 10705
10390 10390 10391 10390 10386 10384 10380 10378 10374 10364 10356 10346 10333 10318 10301 10283 10259 10239 10226 10215 10207 10201 10197 10199 10208 10218 10233 10254 10279 10303 10326 10352 10380 10415 10444 10475 10504 10529 10551 10568 10583 10602 10621 10634 10650 10661 10674 10682 10694
10380 10381 10380 10381 10377 10374 10370 10366 10363 10352 10341 10333 10322 10307 10290 10270 10248 10229 10212 10202 10192 10185 10182 10185 10191 10201 10215 10235 10259 10283 10306 10333 10363 10393 10423 10454 10485 10515 10534 10549 10562 10583 10602 10621 10634 10646 10660 10669 10678
10370 10370 10369 10368 10368 10365 10362 10355 10352 10341 10330 10323 10311 10298 10280 10260 10239 10217 10202 10190 10180 10174 10171 10174 10179 10188 10203 10220 10241 10266 10291 10317 10345 10376 10405 10436 10464 10491 10519 10533 10547 10566 10587 10608 10619 10630 10647 10657 10666
10361 10360 10359 10356 10357 10354 10352 10344 10341 10334 10323 10313 10301 10289 10272 10251 10231 10212 10194 10182 10173 10166 10164 10165 10169 10178 10192 10209 10230 10254 10278 10302 10333 10362 10388 10418 10444 10474 10499 10516 10534 10552 10572 10591 10604 10618 10631 10642 10652
10351 10351 10350 10346 10343 10343 10343 10335 10332 10324 10316 10303 10294 10282 10266 10246 10227 10208 10190 10177 10168 10162 10159 10159 10162 10170 10184 10201 10220 10242 10266 10291 10320 10348 10373 10402 10429 10459 10485 10502 10516 10534 10557 10575 10591 10603 10617 10628 10637
10340 10341 10340 10337 10333 10330 10330 10328 10321 10314 10308 10297 10286 10276 10260 10243 10225 10206 10188 10175 10165 10159 10156 10156 10158 10166 10178 10194 10213 10233 10255 10281 10310 10335 10359 10387 10415 10446 10465 10484 10499 10522 10543 10559 10575 10588 10604 10615 10626